Find OneWeb SL0270

NORAD ID: 48988 Int'l Des: 2021-060 Owner: ONEWEBN Country: UK Constellation: oneweb operational
LEOCIRCULARPOLARONEWEB_TYPE

当前视图

正在加载3D地球...

About OneWeb SL0270

OneWeb SL0270 (NORAD 48988) is a oneweb constellation satellite launched Jul 1, 2021 by ONEWEBN of UK. It operates in LEO, CIRCULAR, POLAR, ONEWEB_TYPE orbit with a mass of 148.00 kg.

关于 OneWeb SL0270

正在加载描述...

即将过境

Passes for default location (London). Set your location on the main map for personalized predictions.

高度历史

Loading altitude history...

两行轨道根数

1 48988U 21060X 26194.63043090 .00002336 00000-0 60733-2 0 9998
2 48988 87.9078 223.5304 0002137 99.3760 260.7613 13.16613859243146
Epoch: Jul 13, 2026 • Age: 11 hours

当前状态

高度 1225.3 km
远地点 / 近地点 N/A
速度 7.24 km/s
星下点 -69.31°S, 99.86°W
发射日期 Jul 1, 2021
运行时间 5 years
类型 internet

技术详情

分类 Payload
质量 148.00 kg
干质量 140.00 kg
总质量 148.00 kg
长度 1.30 m
直径 1.00 m
跨度 5.00 m
形状 Trapezoid+2 pan
制造商 ONEWUS
平台类型 ARROW
阶段状态 In Orbit
所有者/国家 ONEWEBN/UK

Most Searched